Time,TemperatureF,DewpointF,PressureIn,WindDirection,WindDirectionDegrees,WindSpeedMPH,WindSpeedGustMPH,Humidity,HourlyPrecipIn,Conditions,Clouds,dailyrainin,SoftwareType,DateUTC
2013-02-27 00:00:00,26.8,17.7,30.33,NNE,19,5.0,6.0,68,0.00,,---,0.04,VWS V14.00,2013-02-27 07:00:00,
2013-02-27 00:06:00,26.6,17.5,30.31,NNE,24,3.0,9.0,68,0.00,,---,0.00,VWS V14.00,2013-02-27 07:06:00,
2013-02-27 00:12:00,26.7,17.2,30.31,NNW,338,5.0,9.0,67,0.00,,---,0.00,VWS V14.00,2013-02-27 07:12:00,
2013-02-27 00:17:00,26.8,17.0,30.31,NNE,17,2.0,6.0,66,0.00,,---,0.00,VWS V14.00,2013-02-27 07:17:00,
2013-02-27 00:22:00,26.8,16.6,30.32,NE,35,2.0,4.0,65,0.00,,---,0.00,VWS V14.00,2013-02-27 07:22:00,
2013-02-27 00:27:00,26.7,16.5,30.32,NNW,340,1.0,3.0,65,0.00,,---,0.00,VWS V14.00,2013-02-27 07:27:00,
2013-02-27 00:32:00,26.5,16.3,30.32,North,5,2.0,4.0,65,0.00,,---,0.00,VWS V14.00,2013-02-27 07:32:00,
2013-02-27 00:37:00,26.3,16.1,30.34,NNW,341,0.0,2.0,65,0.00,,---,0.00,VWS V14.00,2013-02-27 07:37:00,
2013-02-27 00:42:00,26.1,16.0,30.34,NNW,327,3.0,3.0,65,0.00,,---,0.00,VWS V14.00,2013-02-27 07:42:00,
2013-02-27 00:47:00,25.9,15.8,30.34,NNW,348,0.0,1.0,65,0.00,,---,0.00,VWS V14.00,2013-02-27 07:47:00,
2013-02-27 00:52:00,25.8,16.0,30.34,NNW,348,0.0,2.0,66,0.00,,---,0.00,VWS V14.00,2013-02-27 07:52:00,
2013-02-27 00:57:00,25.7,15.9,30.34,NNW,348,0.0,0.0,66,0.00,,---,0.00,VWS V14.00,2013-02-27 07:57:00,
2013-02-27 01:02:00,25.6,15.8,30.34,NNW,348,0.0,0.0,66,0.00,,---,0.00,VWS V14.00,2013-02-27 08:02:00,
2013-02-27 01:07:00,25.5,15.7,30.33,NE,45,0.0,5.0,66,0.00,,---,0.00,VWS V14.00,2013-02-27 08:07:00,
2013-02-27 01:12:00,25.3,15.6,30.35,NE,44,0.0,2.0,66,0.00,,---,0.00,VWS V14.00,2013-02-27 08:12:00,
2013-02-27 01:18:00,25.2,15.4,30.35,NE,45,0.0,1.0,66,0.00,,---,0.00,VWS V14.00,2013-02-27 08:18:00,
2013-02-27 01:23:00,25.1,15.4,30.35,NE,45,0.0,4.0,66,0.00,,---,0.00,VWS V14.00,2013-02-27 08:23:00,
2013-02-27 01:28:00,25.1,15.0,30.35,NE,44,0.0,1.0,65,0.00,,---,0.00,VWS V14.00,2013-02-27 08:28:00,
2013-02-27 01:33:00,25.1,15.0,30.35,NE,44,0.0,2.0,65,0.00,,---,0.00,VWS V14.00,2013-02-27 08:33:00,
2013-02-27 01:38:00,25.1,15.0,30.35,NE,44,0.0,2.0,65,0.00,,---,0.00,VWS V14.00,2013-02-27 08:38:00,
2013-02-27 01:43:00,25.2,14.8,30.35,NNE,24,3.0,3.0,64,0.00,,---,0.00,VWS V14.00,2013-02-27 08:43:00,
2013-02-27 01:48:00,25.3,14.5,30.35,NNE,13,0.0,1.0,63,0.00,,---,0.00,VWS V14.00,2013-02-27 08:48:00,
2013-02-27 01:53:00,25.3,14.5,30.35,NNE,13,1.0,2.0,63,0.00,,---,0.00,VWS V14.00,2013-02-27 08:53:00,
2013-02-27 01:58:00,25.3,14.5,30.35,NNE,13,0.0,3.0,63,0.00,,---,0.00,VWS V14.00,2013-02-27 08:58:00,
2013-02-27 02:03:00,25.3,14.5,30.35,NE,56,0.0,0.0,63,0.00,,---,0.00,VWS V14.00,2013-02-27 09:03:00,
2013-02-27 02:08:00,25.3,14.1,30.38,NE,56,3.0,3.0,62,0.00,,---,0.00,VWS V14.00,2013-02-27 09:08:00,
2013-02-27 02:13:00,25.3,14.1,30.38,NE,48,0.0,0.0,62,0.00,,---,0.00,VWS V14.00,2013-02-27 09:13:00,
2013-02-27 02:18:00,25.4,14.2,30.38,NE,48,0.0,1.0,62,0.00,,---,0.00,VWS V14.00,2013-02-27 09:18:00,
2013-02-27 02:23:00,25.3,14.1,30.38,NE,48,0.0,1.0,62,0.00,,---,0.00,VWS V14.00,2013-02-27 09:23:00,
2013-02-27 02:28:00,25.2,14.0,30.38,NE,48,0.0,0.0,62,0.00,,---,0.00,VWS V14.00,2013-02-27 09:28:00,
2013-02-27 02:33:00,25.2,14.0,30.38,NE,48,0.0,2.0,62,0.00,,---,0.00,VWS V14.00,2013-02-27 09:33:00,
2013-02-27 02:38:00,25.0,13.8,30.38,NE,48,1.0,2.0,62,0.00,,---,0.00,VWS V14.00,2013-02-27 09:38:00,
2013-02-27 02:43:00,24.8,13.6,30.37,NE,48,2.0,4.0,62,0.00,,---,0.00,VWS V14.00,2013-02-27 09:43:00,
2013-02-27 02:48:00,24.7,13.2,30.37,NE,48,2.0,2.0,61,0.00,,---,0.00,VWS V14.00,2013-02-27 09:48:00,
2013-02-27 02:53:00,24.6,13.4,30.37,NE,48,0.0,1.0,62,0.00,,---,0.00,VWS V14.00,2013-02-27 09:53:00,
2013-02-27 02:58:00,24.5,13.4,30.38,NE,48,0.0,0.0,62,0.00,,---,0.00,VWS V14.00,2013-02-27 09:58:00,
2013-02-27 03:03:00,24.4,13.3,30.38,NE,48,0.0,0.0,62,0.00,,---,0.00,VWS V14.00,2013-02-27 10:03:00,
2013-02-27 03:08:00,24.3,13.2,30.38,NE,48,0.0,0.0,62,0.00,,---,0.00,VWS V14.00,2013-02-27 10:08:00,
2013-02-27 03:13:00,24.1,13.0,30.38,NE,48,0.0,0.0,62,0.00,,---,0.00,VWS V14.00,2013-02-27 10:13:00,
2013-02-27 03:18:00,23.9,12.8,30.39,NE,48,0.0,0.0,62,0.00,,---,0.00,VWS V14.00,2013-02-27 10:18:00,
2013-02-27 03:23:00,23.6,12.5,30.39,NE,48,0.0,0.0,62,0.00,,---,0.00,VWS V14.00,2013-02-27 10:23:00,
2013-02-27 03:28:00,23.5,12.4,30.38,NE,48,0.0,0.0,62,0.00,,---,0.00,VWS V14.00,2013-02-27 10:28:00,
2013-02-27 03:34:00,23.3,12.6,30.40,NE,48,0.0,0.0,63,0.00,,---,0.00,VWS V14.00,2013-02-27 10:34:00,
2013-02-27 03:39:00,23.1,12.4,30.40,NE,48,0.0,0.0,63,0.00,,---,0.00,VWS V14.00,2013-02-27 10:39:00,
2013-02-27 03:44:00,23.0,12.6,30.40,NE,48,0.0,0.0,64,0.00,,---,0.00,VWS V14.00,2013-02-27 10:44:00,
2013-02-27 03:49:00,22.8,12.5,30.40,NE,48,0.0,0.0,64,0.00,,---,0.00,VWS V14.00,2013-02-27 10:49:00,
2013-02-27 03:54:00,22.7,12.4,30.40,NE,48,0.0,0.0,64,0.00,,---,0.00,VWS V14.00,2013-02-27 10:54:00,
2013-02-27 03:59:00,22.4,12.1,30.41,NE,48,0.0,0.0,64,0.00,,---,0.00,VWS V14.00,2013-02-27 10:59:00,
2013-02-27 04:04:00,22.2,11.9,30.41,NE,48,0.0,0.0,64,0.00,,---,0.00,VWS V14.00,2013-02-27 11:04:00,
2013-02-27 04:09:00,22.0,11.7,30.42,NE,48,0.0,0.0,64,0.00,,---,0.00,VWS V14.00,2013-02-27 11:09:00,
2013-02-27 04:14:00,21.8,11.9,30.42,NE,48,0.0,0.0,65,0.00,,---,0.00,VWS V14.00,2013-02-27 11:14:00,
2013-02-27 04:19:00,21.5,11.2,30.42,NE,48,0.0,0.0,64,0.00,,---,0.00,VWS V14.00,2013-02-27 11:19:00,
2013-02-27 04:24:00,21.2,11.3,30.44,NE,48,0.0,0.0,65,0.00,,---,0.00,VWS V14.00,2013-02-27 11:24:00,
2013-02-27 04:29:00,20.8,10.9,30.44,NE,48,0.0,0.0,65,0.00,,---,0.00,VWS V14.00,2013-02-27 11:29:00,
2013-02-27 04:34:00,20.4,10.9,30.44,NE,48,0.0,0.0,66,0.00,,---,0.00,VWS V14.00,2013-02-27 11:34:00,
2013-02-27 04:39:00,20.1,10.9,30.44,NE,48,0.0,0.0,67,0.00,,---,0.00,VWS V14.00,2013-02-27 11:39:00,
2013-02-27 04:44:00,19.9,10.7,30.44,NE,48,0.0,0.0,67,0.00,,---,0.00,VWS V14.00,2013-02-27 11:44:00,
2013-02-27 04:49:00,19.7,10.5,30.44,NE,48,0.0,0.0,67,0.00,,---,0.00,VWS V14.00,2013-02-27 11:49:00,
2013-02-27 04:54:00,19.4,10.6,30.45,NE,48,0.0,0.0,68,0.00,,---,0.00,VWS V14.00,2013-02-27 11:54:00,
2013-02-27 04:59:00,19.1,10.6,30.46,NE,48,0.0,0.0,69,0.00,,---,0.00,VWS V14.00,2013-02-27 11:59:00,
2013-02-27 05:04:00,18.8,10.3,30.48,NE,48,0.0,0.0,69,0.00,,---,0.00,VWS V14.00,2013-02-27 12:04:00,
2013-02-27 05:09:00,18.7,10.9,30.48,NE,48,0.0,0.0,71,0.00,,---,0.00,VWS V14.00,2013-02-27 12:09:00,
2013-02-27 05:14:00,18.6,10.8,30.48,NE,48,0.0,0.0,71,0.00,,---,0.00,VWS V14.00,2013-02-27 12:14:00,
2013-02-27 05:19:00,18.4,10.6,30.48,NE,48,0.0,0.0,71,0.00,,---,0.00,VWS V14.00,2013-02-27 12:19:00,
2013-02-27 05:25:00,18.2,10.7,30.48,NE,48,0.0,0.0,72,0.00,,---,0.00,VWS V14.00,2013-02-27 12:25:00,
2013-02-27 05:30:00,18.1,10.6,30.49,NE,48,0.0,1.0,72,0.00,,---,0.00,VWS V14.00,2013-02-27 12:30:00,
2013-02-27 05:36:00,17.9,10.4,30.49,NE,48,0.0,0.0,72,0.00,,---,0.00,VWS V14.00,2013-02-27 12:36:00,
2013-02-27 05:42:00,17.8,10.3,30.49,NE,48,0.0,0.0,72,0.00,,---,0.00,VWS V14.00,2013-02-27 12:42:00,
2013-02-27 05:47:00,17.7,10.5,30.49,NE,48,0.0,0.0,73,0.00,,---,0.00,VWS V14.00,2013-02-27 12:47:00,
2013-02-27 05:52:00,17.7,10.5,30.49,NE,48,0.0,2.0,73,0.00,,---,0.00,VWS V14.00,2013-02-27 12:52:00,
2013-02-27 05:57:00,17.8,10.9,30.49,NE,48,0.0,1.0,74,0.00,,---,0.00,VWS V14.00,2013-02-27 12:57:00,
2013-02-27 06:02:00,18.0,11.1,30.49,NE,48,0.0,0.0,74,0.00,,---,0.00,VWS V14.00,2013-02-27 13:02:00,
2013-02-27 06:08:00,18.2,11.6,30.49,South,184,2.0,3.0,75,0.00,,---,0.00,VWS V14.00,2013-02-27 13:08:00,
2013-02-27 06:13:00,18.9,12.3,30.50,SSW,209,2.0,3.0,75,0.00,,---,0.00,VWS V14.00,2013-02-27 13:13:00,
2013-02-27 06:18:00,19.1,12.5,30.50,SSW,193,0.0,0.0,75,0.00,,---,0.00,VWS V14.00,2013-02-27 13:18:00,
2013-02-27 06:23:00,19.1,12.2,30.50,SSW,192,0.0,0.0,74,0.00,,---,0.00,VWS V14.00,2013-02-27 13:23:00,
2013-02-27 06:28:00,19.1,12.2,30.50,SSW,192,1.0,1.0,74,0.00,,---,0.00,VWS V14.00,2013-02-27 13:28:00,
2013-02-27 06:33:00,19.1,12.2,30.50,SSW,200,0.0,2.0,74,0.00,,---,0.00,VWS V14.00,2013-02-27 13:33:00,
2013-02-27 06:38:00,19.1,12.2,30.50,SSW,203,3.0,6.0,74,0.00,,---,0.00,VWS V14.00,2013-02-27 13:38:00,
2013-02-27 06:43:00,19.1,12.2,30.50,SSW,199,0.0,0.0,74,0.00,,---,0.00,VWS V14.00,2013-02-27 13:43:00,
2013-02-27 06:48:00,19.1,12.2,30.50,SSE,156,0.0,1.0,74,0.00,,---,0.00,VWS V14.00,2013-02-27 13:48:00,
2013-02-27 06:53:00,19.1,11.9,30.50,SW,227,2.0,2.0,73,0.00,,---,0.00,VWS V14.00,2013-02-27 13:53:00,
2013-02-27 06:59:00,19.2,11.7,30.50,South,188,0.0,5.0,72,0.00,,---,0.00,VWS V14.00,2013-02-27 13:59:00,
2013-02-27 07:04:00,19.2,11.7,30.50,South,188,0.0,1.0,72,0.00,,---,0.00,VWS V14.00,2013-02-27 14:04:00,
2013-02-27 07:09:00,19.2,11.7,30.50,SSW,198,0.0,4.0,72,0.00,,---,0.00,VWS V14.00,2013-02-27 14:09:00,
2013-02-27 07:14:00,19.3,11.4,30.50,South,189,2.0,3.0,71,0.00,,---,0.00,VWS V14.00,2013-02-27 14:14:00,
2013-02-27 07:19:00,19.4,11.6,30.50,South,180,0.0,0.0,71,0.00,,---,0.00,VWS V14.00,2013-02-27 14:19:00,
2013-02-27 07:24:00,19.7,11.8,30.49,SSW,213,2.0,3.0,71,0.00,,---,0.00,VWS V14.00,2013-02-27 14:24:00,
2013-02-27 07:29:00,19.8,11.9,30.50,South,190,1.0,3.0,71,0.00,,---,0.00,VWS V14.00,2013-02-27 14:29:00,
2013-02-27 07:34:00,20.1,11.9,30.49,South,184,2.0,5.0,70,0.00,,---,0.00,VWS V14.00,2013-02-27 14:34:00,
2013-02-27 07:39:00,20.4,11.9,30.50,SSW,203,1.0,3.0,69,0.00,,---,0.00,VWS V14.00,2013-02-27 14:39:00,
2013-02-27 07:44:00,20.7,11.8,30.50,South,186,0.0,3.0,68,0.00,,---,0.00,VWS V14.00,2013-02-27 14:44:00,
2013-02-27 07:49:00,20.9,12.0,30.50,South,188,0.0,2.0,68,0.00,,---,0.00,VWS V14.00,2013-02-27 14:49:00,
2013-02-27 07:55:00,21.2,12.0,30.50,SSW,196,1.0,7.0,67,0.00,,---,0.00,VWS V14.00,2013-02-27 14:55:00,
2013-02-27 08:00:00,21.5,11.9,30.49,South,184,1.0,7.0,66,0.00,,---,0.00,VWS V14.00,2013-02-27 15:00:00,
2013-02-27 08:05:00,21.8,11.9,30.49,SSW,211,0.0,5.0,65,0.00,,---,0.00,VWS V14.00,2013-02-27 15:05:00,
2013-02-27 08:10:00,22.1,12.1,30.49,SW,216,0.0,3.0,65,0.00,,---,0.00,VWS V14.00,2013-02-27 15:10:00,
2013-02-27 08:15:00,22.5,12.2,30.49,South,174,3.0,3.0,64,0.00,,---,0.00,VWS V14.00,2013-02-27 15:15:00,
2013-02-27 08:20:00,23.2,12.5,30.49,South,184,2.0,3.0,63,0.00,,---,0.00,VWS V14.00,2013-02-27 15:20:00,
2013-02-27 08:26:00,23.8,12.3,30.48,SW,219,3.0,5.0,61,0.00,,---,0.00,VWS V14.00,2013-02-27 15:26:00,
2013-02-27 08:31:00,24.0,12.1,30.48,South,180,0.0,2.0,60,0.00,,---,0.00,VWS V14.00,2013-02-27 15:31:00,
2013-02-27 08:36:00,24.4,12.1,30.48,South,183,3.0,5.0,59,0.00,,---,0.00,VWS V14.00,2013-02-27 15:36:00,
2013-02-27 08:42:00,24.7,12.0,30.48,SSW,208,3.0,3.0,58,0.00,,---,0.00,VWS V14.00,2013-02-27 15:42:00,
2013-02-27 08:47:00,25.0,12.3,30.48,SSW,194,2.0,5.0,58,0.00,,---,0.00,VWS V14.00,2013-02-27 15:47:00,
2013-02-27 08:52:00,25.1,12.0,30.48,SW,218,4.0,4.0,57,0.00,,---,0.00,VWS V14.00,2013-02-27 15:52:00,
2013-02-27 08:57:00,25.4,12.3,30.47,SSW,202,2.0,5.0,57,0.00,,---,0.00,VWS V14.00,2013-02-27 15:57:00,
2013-02-27 09:02:00,25.7,12.2,30.48,SSW,198,0.0,4.0,56,0.00,,---,0.00,VWS V14.00,2013-02-27 16:02:00,
2013-02-27 09:08:00,26.2,12.7,30.48,SW,215,3.0,4.0,56,0.00,,---,0.00,VWS V14.00,2013-02-27 16:08:00,
2013-02-27 09:14:00,26.5,12.5,30.48,SSW,200,1.0,5.0,55,0.00,,---,0.00,VWS V14.00,2013-02-27 16:14:00,
2013-02-27 09:19:00,26.8,13.2,30.46,South,178,2.0,9.0,56,0.00,,---,0.00,VWS V14.00,2013-02-27 16:19:00,
2013-02-27 09:24:00,27.0,13.0,30.46,South,189,2.0,4.0,55,0.00,,---,0.00,VWS V14.00,2013-02-27 16:24:00,
2013-02-27 09:29:00,27.4,13.4,30.46,South,176,0.0,1.0,55,0.00,,---,0.00,VWS V14.00,2013-02-27 16:29:00,
2013-02-27 09:35:00,27.9,13.8,30.46,South,184,0.0,2.0,55,0.00,,---,0.00,VWS V14.00,2013-02-27 16:35:00,
2013-02-27 09:40:00,28.3,14.2,30.46,South,183,2.0,4.0,55,0.00,,---,0.00,VWS V14.00,2013-02-27 16:40:00,
2013-02-27 09:46:00,28.7,14.2,30.44,South,186,0.0,2.0,54,0.00,,---,0.00,VWS V14.00,2013-02-27 16:46:00,
2013-02-27 09:51:00,29.0,14.4,30.44,South,186,1.0,3.0,54,0.00,,---,0.00,VWS V14.00,2013-02-27 16:51:00,
2013-02-27 09:56:00,29.2,13.8,30.44,SSW,206,0.0,2.0,52,0.00,,---,0.00,VWS V14.00,2013-02-27 16:56:00,
2013-02-27 10:01:00,29.7,14.2,30.44,SSW,206,0.0,1.0,52,0.00,,---,0.00,VWS V14.00,2013-02-27 17:01:00,
2013-02-27 10:06:00,29.9,14.0,30.44,SSW,203,0.0,0.0,51,0.00,,---,0.00,VWS V14.00,2013-02-27 17:06:00,
2013-02-27 10:11:00,30.3,13.9,30.44,SSW,203,0.0,0.0,50,0.00,,---,0.00,VWS V14.00,2013-02-27 17:11:00,
2013-02-27 10:16:00,30.7,13.8,30.42,SSW,206,2.0,6.0,49,0.00,,---,0.00,VWS V14.00,2013-02-27 17:16:00,
2013-02-27 10:21:00,31.0,13.6,30.43,SW,218,0.0,5.0,48,0.00,,---,0.00,VWS V14.00,2013-02-27 17:21:00,
2013-02-27 10:26:00,31.2,13.8,30.43,SW,218,0.0,4.0,48,0.00,,---,0.00,VWS V14.00,2013-02-27 17:26:00,
2013-02-27 10:31:00,31.5,14.1,30.43,SW,218,1.0,3.0,48,0.00,,---,0.00,VWS V14.00,2013-02-27 17:31:00,
2013-02-27 10:36:00,31.6,13.7,30.42,SW,217,0.0,0.0,47,0.00,,---,0.00,VWS V14.00,2013-02-27 17:36:00,
2013-02-27 10:41:00,31.8,13.9,30.42,SW,218,0.0,2.0,47,0.00,,---,0.00,VWS V14.00,2013-02-27 17:41:00,
2013-02-27 10:46:00,32.4,13.4,30.43,SW,218,2.0,2.0,45,0.00,,---,0.00,VWS V14.00,2013-02-27 17:46:00,
2013-02-27 10:51:00,32.5,12.5,30.42,SW,218,0.0,1.0,43,0.00,,---,0.00,VWS V14.00,2013-02-27 17:51:00,
2013-02-27 10:56:00,32.7,12.7,30.41,SW,225,0.0,0.0,43,0.00,,---,0.00,VWS V14.00,2013-02-27 17:56:00,
2013-02-27 11:01:00,33.2,13.1,30.41,SE,131,3.0,4.0,43,0.00,,---,0.00,VWS V14.00,2013-02-27 18:01:00,
2013-02-27 11:06:00,33.3,11.6,30.41,ENE,76,3.0,5.0,40,0.00,,---,0.00,VWS V14.00,2013-02-27 18:06:00,
2013-02-27 11:11:00,33.8,12.1,30.41,East,99,0.0,1.0,40,0.00,,---,0.00,VWS V14.00,2013-02-27 18:11:00,
2013-02-27 11:16:00,34.0,12.2,30.41,East,93,0.0,3.0,40,0.00,,---,0.00,VWS V14.00,2013-02-27 18:16:00,
2013-02-27 11:21:00,34.1,12.3,30.41,East,98,0.0,3.0,40,0.00,,---,0.00,VWS V14.00,2013-02-27 18:21:00,
2013-02-27 11:26:00,34.4,12.6,30.41,ENE,60,0.0,1.0,40,0.00,,---,0.00,VWS V14.00,2013-02-27 18:26:00,
2013-02-27 11:31:00,34.5,11.5,30.40,North,360,3.0,4.0,38,0.00,,---,0.00,VWS V14.00,2013-02-27 18:31:00,
2013-02-27 11:36:00,34.6,12.2,30.39,ESE,108,0.0,2.0,39,0.00,,---,0.00,VWS V14.00,2013-02-27 18:36:00,
2013-02-27 11:41:00,34.8,11.8,30.39,East,99,0.0,1.0,38,0.00,,---,0.00,VWS V14.00,2013-02-27 18:41:00,
2013-02-27 11:46:00,35.1,12.6,30.39,NNW,341,0.0,4.0,39,0.00,,---,0.00,VWS V14.00,2013-02-27 18:46:00,
2013-02-27 11:51:00,35.1,13.2,30.39,ESE,119,0.0,4.0,40,0.00,,---,0.00,VWS V14.00,2013-02-27 18:51:00,
2013-02-27 11:56:00,35.2,12.1,30.39,East,98,0.0,2.0,38,0.00,,---,0.00,VWS V14.00,2013-02-27 18:56:00,
2013-02-27 12:01:00,35.4,12.9,30.39,East,100,2.0,2.0,39,0.00,,---,0.00,VWS V14.00,2013-02-27 19:01:00,
2013-02-27 12:06:00,35.5,11.8,30.38,ENE,75,0.0,4.0,37,0.00,,---,0.00,VWS V14.00,2013-02-27 19:06:00,
2013-02-27 12:11:00,35.5,10.6,30.38,ENE,75,0.0,1.0,35,0.00,,---,0.00,VWS V14.00,2013-02-27 19:11:00,
2013-02-27 12:16:00,35.7,13.2,30.38,ENE,71,2.0,5.0,39,0.00,,---,0.00,VWS V14.00,2013-02-27 19:16:00,
2013-02-27 12:21:00,35.9,13.9,30.38,NE,53,0.0,2.0,40,0.00,,---,0.00,VWS V14.00,2013-02-27 19:21:00,
2013-02-27 12:26:00,36.1,13.6,30.38,ESE,117,5.0,6.0,39,0.00,,---,0.00,VWS V14.00,2013-02-27 19:26:00,
2013-02-27 12:31:00,35.7,13.8,30.38,ESE,120,0.0,2.0,40,0.00,,---,0.00,VWS V14.00,2013-02-27 19:31:00,
2013-02-27 12:36:00,35.9,13.9,30.38,ESE,123,1.0,2.0,40,0.00,,---,0.00,VWS V14.00,2013-02-27 19:36:00,
2013-02-27 12:41:00,36.1,11.7,30.38,NE,50,0.0,2.0,36,0.00,,---,0.00,VWS V14.00,2013-02-27 19:41:00,
2013-02-27 12:46:00,35.8,12.7,30.38,ESE,102,0.0,3.0,38,0.00,,---,0.00,VWS V14.00,2013-02-27 19:46:00,
2013-02-27 12:51:00,36.2,14.8,30.38,ESE,109,1.0,2.0,41,0.00,,---,0.00,VWS V14.00,2013-02-27 19:51:00,
2013-02-27 12:56:00,37.1,15.0,30.37,SE,126,4.0,5.0,40,0.00,,---,0.00,VWS V14.00,2013-02-27 19:56:00,
2013-02-27 13:01:00,37.0,14.9,30.38,SE,126,1.0,3.0,40,0.00,,---,0.00,VWS V14.00,2013-02-27 20:01:00,
2013-02-27 13:07:00,36.8,14.2,30.38,ENE,67,3.0,6.0,39,0.00,,---,0.00,VWS V14.00,2013-02-27 20:07:00,
2013-02-27 13:12:00,37.2,15.1,30.38,East,80,0.0,1.0,40,0.00,,---,0.00,VWS V14.00,2013-02-27 20:12:00,
2013-02-27 13:17:00,37.0,14.4,30.38,ENE,69,5.0,6.0,39,0.00,,---,0.00,VWS V14.00,2013-02-27 20:17:00,
2013-02-27 13:22:00,36.2,14.2,30.39,SE,137,7.0,7.0,40,0.00,,---,0.00,VWS V14.00,2013-02-27 20:22:00,
2013-02-27 13:27:00,36.1,12.4,30.38,East,87,1.0,3.0,37,0.00,,---,0.00,VWS V14.00,2013-02-27 20:27:00,
2013-02-27 13:32:00,35.9,12.8,30.39,East,94,3.0,4.0,38,0.00,,---,0.00,VWS V14.00,2013-02-27 20:32:00,
2013-02-27 13:37:00,36.5,15.1,30.38,SE,133,0.0,4.0,41,0.00,,---,0.00,VWS V14.00,2013-02-27 20:37:00,
2013-02-27 13:42:00,37.1,15.6,30.37,ESE,122,0.0,5.0,41,0.00,,---,0.00,VWS V14.00,2013-02-27 20:42:00,
2013-02-27 13:47:00,36.9,13.7,30.37,ESE,113,1.0,5.0,38,0.00,,---,0.00,VWS V14.00,2013-02-27 20:47:00,
2013-02-27 13:52:00,36.5,14.5,30.37,ESE,110,0.0,4.0,40,0.00,,---,0.00,VWS V14.00,2013-02-27 20:52:00,
2013-02-27 13:57:00,36.8,13.6,30.37,ESE,118,1.0,2.0,38,0.00,,---,0.00,VWS V14.00,2013-02-27 20:57:00,
2013-02-27 14:02:00,36.5,15.1,30.36,SE,130,0.0,9.0,41,0.00,,---,0.00,VWS V14.00,2013-02-27 21:02:00,
2013-02-27 14:08:00,36.8,14.8,30.38,ENE,69,1.0,2.0,40,0.00,,---,0.00,VWS V14.00,2013-02-27 21:08:00,
2013-02-27 14:13:00,36.6,14.0,30.38,SE,129,2.0,4.0,39,0.00,,---,0.00,VWS V14.00,2013-02-27 21:13:00,
2013-02-27 14:18:00,36.6,14.6,30.38,ESE,113,0.0,5.0,40,0.00,,---,0.01,VWS V14.00,2013-02-27 21:18:00,
2013-02-27 14:23:00,36.7,15.2,30.38,ESE,119,2.0,4.0,41,0.00,,---,0.01,VWS V14.00,2013-02-27 21:23:00,
2013-02-27 14:28:00,36.7,14.7,30.38,SE,129,2.0,4.0,40,0.00,,---,0.01,VWS V14.00,2013-02-27 21:28:00,
2013-02-27 14:33:00,36.7,15.2,30.38,ESE,117,0.0,1.0,41,0.00,,---,0.01,VWS V14.00,2013-02-27 21:33:00,
2013-02-27 14:38:00,36.7,15.8,30.38,ESE,115,0.0,5.0,42,0.00,,---,0.01,VWS V14.00,2013-02-27 21:38:00,
2013-02-27 14:43:00,37.0,15.5,30.38,NE,38,2.0,5.0,41,0.00,,---,0.01,VWS V14.00,2013-02-27 21:43:00,
2013-02-27 14:48:00,36.3,14.9,30.38,ENE,74,2.0,3.0,41,0.00,,---,0.01,VWS V14.00,2013-02-27 21:48:00,
2013-02-27 14:53:00,36.1,15.2,30.38,ENE,57,4.0,5.0,42,0.00,,---,0.01,VWS V14.00,2013-02-27 21:53:00,
2013-02-27 14:58:00,35.5,13.6,30.38,ENE,59,2.0,6.0,40,0.00,,---,0.01,VWS V14.00,2013-02-27 21:58:00,
2013-02-27 15:03:00,35.7,14.9,30.39,NE,36,0.0,4.0,42,0.00,,---,0.01,VWS V14.00,2013-02-27 22:03:00,
2013-02-27 15:08:00,35.9,15.6,30.39,ESE,116,2.0,4.0,43,0.00,,---,0.01,VWS V14.00,2013-02-27 22:08:00,
2013-02-27 15:13:00,35.8,15.5,30.39,SE,126,6.0,6.0,43,0.00,,---,0.01,VWS V14.00,2013-02-27 22:13:00,
2013-02-27 15:18:00,36.2,16.9,30.39,SE,127,6.0,6.0,45,0.00,,---,0.01,VWS V14.00,2013-02-27 22:18:00,
2013-02-27 15:23:00,35.9,16.1,30.39,ESE,114,1.0,2.0,44,0.00,,---,0.01,VWS V14.00,2013-02-27 22:23:00,
2013-02-27 15:28:00,35.8,16.0,30.39,SE,126,3.0,7.0,44,0.00,,---,0.01,VWS V14.00,2013-02-27 22:28:00,
2013-02-27 15:33:00,35.9,16.1,30.40,SE,130,1.0,5.0,44,0.00,,---,0.01,VWS V14.00,2013-02-27 22:33:00,
2013-02-27 15:38:00,35.4,15.1,30.40,ESE,119,10.0,10.0,43,0.00,,---,0.01,VWS V14.00,2013-02-27 22:38:00,
2013-02-27 15:43:00,35.2,15.0,30.41,ESE,119,0.0,6.0,43,0.00,,---,0.01,VWS V14.00,2013-02-27 22:43:00,
2013-02-27 15:48:00,35.2,15.5,30.41,ESE,106,0.0,5.0,44,0.00,,---,0.01,VWS V14.00,2013-02-27 22:48:00,
2013-02-27 15:54:00,35.0,16.3,30.41,ESE,109,2.0,6.0,46,0.00,,---,0.01,VWS V14.00,2013-02-27 22:54:00,
2013-02-27 15:59:00,34.8,16.1,30.41,ESE,112,0.0,4.0,46,0.00,,---,0.01,VWS V14.00,2013-02-27 22:59:00,
2013-02-27 16:04:00,35.1,16.4,30.42,ESE,110,1.0,2.0,46,0.00,,---,0.01,VWS V14.00,2013-02-27 23:04:00,
2013-02-27 16:10:00,34.7,15.0,30.43,SE,137,1.0,5.0,44,0.00,,---,0.01,VWS V14.00,2013-02-27 23:10:00,
2013-02-27 16:15:00,34.2,14.6,30.44,SE,128,3.0,5.0,44,0.00,,---,0.01,VWS V14.00,2013-02-27 23:15:00,
2013-02-27 16:20:00,33.6,14.5,30.44,SE,128,0.0,2.0,45,0.00,,---,0.01,VWS V14.00,2013-02-27 23:20:00,
2013-02-27 16:25:00,33.0,15.0,30.44,SE,125,0.0,3.0,47,0.00,,---,0.01,VWS V14.00,2013-02-27 23:25:00,
2013-02-27 16:30:00,32.7,14.7,30.44,ESE,121,0.0,1.0,47,0.00,,---,0.01,VWS V14.00,2013-02-27 23:30:00,
2013-02-27 16:35:00,32.4,15.4,30.44,ESE,119,0.0,6.0,49,0.00,,---,0.01,VWS V14.00,2013-02-27 23:35:00,
2013-02-27 16:40:00,32.2,14.2,30.45,ESE,114,0.0,3.0,47,0.00,,---,0.01,VWS V14.00,2013-02-27 23:40:00,
2013-02-27 16:45:00,32.1,14.6,30.45,SSE,153,0.0,5.0,48,0.00,,---,0.01,VWS V14.00,2013-02-27 23:45:00,
2013-02-27 16:50:00,31.7,14.3,30.45,SE,133,0.0,6.0,48,0.00,,---,0.01,VWS V14.00,2013-02-27 23:50:00,
2013-02-27 16:55:00,31.5,14.1,30.45,ESE,117,0.0,1.0,48,0.00,,---,0.01,VWS V14.00,2013-02-27 23:55:00,
2013-02-27 17:00:00,31.3,14.4,30.45,SE,130,0.0,2.0,49,0.00,,---,0.01,VWS V14.00,2013-02-28 00:00:00,
2013-02-27 17:05:00,31.1,14.2,30.47,ESE,111,0.0,2.0,49,0.00,,---,0.01,VWS V14.00,2013-02-28 00:05:00,
2013-02-27 17:10:00,30.9,14.5,30.47,SE,130,2.0,5.0,50,0.00,,---,0.01,VWS V14.00,2013-02-28 00:10:00,
2013-02-27 17:16:00,30.5,14.1,30.47,ESE,119,0.0,2.0,50,0.00,,---,0.01,VWS V14.00,2013-02-28 00:16:00,
2013-02-27 17:22:00,30.3,14.4,30.47,ESE,119,1.0,3.0,51,0.00,,---,0.01,VWS V14.00,2013-02-28 00:22:00,
2013-02-27 17:27:00,30.2,14.3,30.47,SE,136,5.0,6.0,51,0.00,,---,0.01,VWS V14.00,2013-02-28 00:27:00,
2013-02-27 17:32:00,30.0,14.5,30.47,SE,133,1.0,4.0,52,0.00,,---,0.01,VWS V14.00,2013-02-28 00:32:00,
2013-02-27 17:37:00,29.7,14.2,30.47,SE,132,1.0,1.0,52,0.00,,---,0.01,VWS V14.00,2013-02-28 00:37:00,
2013-02-27 17:42:00,29.6,14.1,30.48,ESE,121,0.0,0.0,52,0.00,,---,0.01,VWS V14.00,2013-02-28 00:42:00,
2013-02-27 17:47:00,29.3,13.9,30.49,ESE,121,0.0,0.0,52,0.00,,---,0.01,VWS V14.00,2013-02-28 00:47:00,
2013-02-27 17:52:00,29.1,14.1,30.49,ESE,121,0.0,2.0,53,0.00,,---,0.01,VWS V14.00,2013-02-28 00:52:00,
2013-02-27 17:57:00,28.9,13.9,30.49,ESE,121,3.0,4.0,53,0.00,,---,0.01,VWS V14.00,2013-02-28 00:57:00,
2013-02-27 18:02:00,28.7,14.2,30.49,ESE,121,0.0,1.0,54,0.00,,---,0.01,VWS V14.00,2013-02-28 01:02:00,
2013-02-27 18:07:00,28.5,14.0,30.49,ESE,121,0.0,1.0,54,0.00,,---,0.01,VWS V14.00,2013-02-28 01:07:00,
2013-02-27 18:12:00,28.3,13.8,30.50,ESE,121,0.0,3.0,54,0.00,,---,0.01,VWS V14.00,2013-02-28 01:12:00,
2013-02-27 18:17:00,28.1,13.6,30.50,ESE,121,1.0,2.0,54,0.00,,---,0.01,VWS V14.00,2013-02-28 01:17:00,
2013-02-27 18:22:00,27.9,13.4,30.50,ESE,121,0.0,4.0,54,0.00,,---,0.01,VWS V14.00,2013-02-28 01:22:00,
2013-02-27 18:27:00,27.8,13.3,30.50,ESE,121,0.0,2.0,54,0.00,,---,0.01,VWS V14.00,2013-02-28 01:27:00,
2013-02-27 18:33:00,27.6,13.1,30.50,ESE,121,0.0,0.0,54,0.00,,---,0.01,VWS V14.00,2013-02-28 01:33:00,
2013-02-27 18:38:00,27.5,13.5,30.50,ESE,121,0.0,0.0,55,0.00,,---,0.01,VWS V14.00,2013-02-28 01:38:00,
2013-02-27 18:43:00,27.2,13.2,30.51,ESE,121,0.0,2.0,55,0.00,,---,0.01,VWS V14.00,2013-02-28 01:43:00,
2013-02-27 18:49:00,27.1,13.5,30.51,ESE,121,0.0,0.0,56,0.00,,---,0.01,VWS V14.00,2013-02-28 01:49:00,
2013-02-27 18:54:00,27.0,13.4,30.51,ESE,121,0.0,0.0,56,0.00,,---,0.01,VWS V14.00,2013-02-28 01:54:00,
2013-02-27 19:00:00,26.9,13.3,30.51,ESE,121,0.0,0.0,56,0.00,,---,0.01,VWS V14.00,2013-02-28 02:00:00,
2013-02-27 19:05:00,26.7,13.1,30.50,ESE,121,0.0,0.0,56,0.00,,---,0.01,VWS V14.00,2013-02-28 02:05:00,
2013-02-27 19:10:00,26.5,12.9,30.50,ESE,121,0.0,0.0,56,0.00,,---,0.01,VWS V14.00,2013-02-28 02:10:00,
2013-02-27 19:15:00,26.4,12.8,30.50,ESE,121,0.0,0.0,56,0.00,,---,0.01,VWS V14.00,2013-02-28 02:15:00,
2013-02-27 19:20:00,26.2,13.1,30.50,ESE,121,0.0,0.0,57,0.00,,---,0.01,VWS V14.00,2013-02-28 02:20:00,
2013-02-27 19:25:00,26.1,13.0,30.50,ESE,121,0.0,1.0,57,0.00,,---,0.01,VWS V14.00,2013-02-28 02:25:00,
2013-02-27 19:30:00,25.9,12.8,30.50,ESE,121,0.0,0.0,57,0.00,,---,0.01,VWS V14.00,2013-02-28 02:30:00,
2013-02-27 19:35:00,25.7,13.0,30.50,ESE,121,0.0,0.0,58,0.00,,---,0.01,VWS V14.00,2013-02-28 02:35:00,
2013-02-27 19:40:00,25.6,12.9,30.50,ESE,121,0.0,0.0,58,0.00,,---,0.01,VWS V14.00,2013-02-28 02:40:00,
2013-02-27 19:45:00,25.4,12.7,30.51,ESE,121,0.0,0.0,58,0.00,,---,0.01,VWS V14.00,2013-02-28 02:45:00,
2013-02-27 19:51:00,25.2,12.5,30.51,ESE,121,0.0,0.0,58,0.00,,---,0.01,VWS V14.00,2013-02-28 02:51:00,
2013-02-27 19:56:00,25.1,12.4,30.51,ESE,121,0.0,0.0,58,0.00,,---,0.01,VWS V14.00,2013-02-28 02:56:00,
2013-02-27 20:01:00,24.9,12.2,30.51,ESE,121,0.0,0.0,58,0.00,,---,0.01,VWS V14.00,2013-02-28 03:01:00,
2013-02-27 20:06:00,24.8,12.1,30.49,ESE,121,0.0,1.0,58,0.00,,---,0.01,VWS V14.00,2013-02-28 03:06:00,
2013-02-27 20:11:00,24.7,12.4,30.49,ESE,121,0.0,0.0,59,0.00,,---,0.01,VWS V14.00,2013-02-28 03:11:00,
2013-02-27 20:16:00,24.5,12.6,30.49,ESE,121,0.0,2.0,60,0.00,,---,0.01,VWS V14.00,2013-02-28 03:16:00,
2013-02-27 20:21:00,24.7,12.8,30.48,ESE,121,0.0,2.0,60,0.00,,---,0.01,VWS V14.00,2013-02-28 03:21:00,
2013-02-27 20:26:00,24.7,12.8,30.48,ESE,121,0.0,0.0,60,0.00,,---,0.01,VWS V14.00,2013-02-28 03:26:00,
2013-02-27 20:32:00,24.7,12.8,30.48,ESE,121,0.0,0.0,60,0.00,,---,0.01,VWS V14.00,2013-02-28 03:32:00,
2013-02-27 20:37:00,24.6,12.7,30.48,ESE,121,0.0,0.0,60,0.00,,---,0.01,VWS V14.00,2013-02-28 03:37:00,
2013-02-27 20:42:00,24.5,12.6,30.49,ESE,121,0.0,0.0,60,0.00,,---,0.01,VWS V14.00,2013-02-28 03:42:00,
2013-02-27 20:47:00,24.3,12.4,30.48,ESE,121,0.0,0.0,60,0.00,,---,0.01,VWS V14.00,2013-02-28 03:47:00,
2013-02-27 20:52:00,24.2,12.3,30.48,ESE,121,0.0,0.0,60,0.00,,---,0.01,VWS V14.00,2013-02-28 03:52:00,
2013-02-27 20:57:00,24.0,12.1,30.48,ESE,121,0.0,0.0,60,0.00,,---,0.01,VWS V14.00,2013-02-28 03:57:00,
2013-02-27 21:02:00,23.8,12.0,30.48,ESE,121,0.0,0.0,60,0.00,,---,0.01,VWS V14.00,2013-02-28 04:02:00,
2013-02-27 21:07:00,23.6,11.8,30.46,ESE,121,0.0,0.0,60,0.00,,---,0.01,VWS V14.00,2013-02-28 04:07:00,
2013-02-27 21:12:00,23.4,11.6,30.47,ESE,121,0.0,0.0,60,0.00,,---,0.01,VWS V14.00,2013-02-28 04:12:00,
2013-02-27 21:17:00,23.2,11.8,30.47,ESE,121,0.0,0.0,61,0.00,,---,0.01,VWS V14.00,2013-02-28 04:17:00,
2013-02-27 21:22:00,23.0,11.9,30.47,ESE,121,0.0,0.0,62,0.00,,---,0.01,VWS V14.00,2013-02-28 04:22:00,
2013-02-27 21:27:00,22.8,11.8,30.47,ESE,121,0.0,0.0,62,0.00,,---,0.01,VWS V14.00,2013-02-28 04:27:00,
2013-02-27 21:32:00,22.6,11.9,30.47,ESE,121,0.0,2.0,63,0.00,,---,0.01,VWS V14.00,2013-02-28 04:32:00,
2013-02-27 21:37:00,22.5,11.8,30.47,ESE,121,0.0,0.0,63,0.00,,---,0.01,VWS V14.00,2013-02-28 04:37:00,
2013-02-27 21:42:00,22.5,11.8,30.47,ESE,121,0.0,0.0,63,0.00,,---,0.01,VWS V14.00,2013-02-28 04:42:00,
2013-02-27 21:47:00,22.4,11.7,30.47,ESE,121,1.0,1.0,63,0.00,,---,0.01,VWS V14.00,2013-02-28 04:47:00,
2013-02-27 21:52:00,22.2,11.5,30.47,ESE,121,0.0,2.0,63,0.00,,---,0.01,VWS V14.00,2013-02-28 04:52:00,
2013-02-27 21:57:00,21.9,11.2,30.47,ESE,121,0.0,1.0,63,0.00,,---,0.01,VWS V14.00,2013-02-28 04:57:00,
2013-02-27 22:00:00,21.8,11.2,30.47,ESE,121,0.0,0.0,63,0.00,,---,0.01,VWS V14.00,2013-02-28 05:00:00,
2013-02-27 22:01:00,21.7,11.1,30.48,ESE,121,0.0,0.0,63,0.00,,---,0.01,VWS V14.00,2013-02-28 05:01:00,
2013-02-27 22:07:00,21.4,10.8,30.46,ESE,121,0.0,0.0,63,0.00,,---,0.01,VWS V14.00,2013-02-28 05:07:00,
2013-02-27 22:12:00,21.1,10.8,30.46,ESE,121,0.0,0.0,64,0.00,,---,0.01,VWS V14.00,2013-02-28 05:12:00,
2013-02-27 22:17:00,20.8,10.6,30.45,ESE,121,1.0,2.0,64,0.00,,---,0.01,VWS V14.00,2013-02-28 05:17:00,
2013-02-27 22:22:00,20.6,10.7,30.45,ESE,121,0.0,0.0,65,0.00,,---,0.01,VWS V14.00,2013-02-28 05:22:00,
2013-02-27 22:27:00,20.4,10.5,30.47,ESE,121,0.0,0.0,65,0.00,,---,0.01,VWS V14.00,2013-02-28 05:27:00,
2013-02-27 22:32:00,20.2,10.3,30.47,ESE,121,0.0,0.0,65,0.00,,---,0.01,VWS V14.00,2013-02-28 05:32:00,
2013-02-27 22:37:00,19.8,9.9,30.47,ESE,121,0.0,0.0,65,0.00,,---,0.01,VWS V14.00,2013-02-28 05:37:00,
2013-02-27 22:42:00,19.7,9.9,30.47,ESE,121,0.0,0.0,65,0.00,,---,0.01,VWS V14.00,2013-02-28 05:42:00,
2013-02-27 22:47:00,19.5,9.7,30.47,ESE,121,0.0,0.0,65,0.00,,---,0.01,VWS V14.00,2013-02-28 05:47:00,
2013-02-27 22:52:00,19.2,9.4,30.47,ESE,121,0.0,0.0,65,0.00,,---,0.01,VWS V14.00,2013-02-28 05:52:00,
2013-02-27 22:57:00,19.0,9.2,30.47,ESE,121,0.0,2.0,65,0.00,,---,0.01,VWS V14.00,2013-02-28 05:57:00,
2013-02-27 23:02:00,18.7,8.9,30.47,ESE,121,0.0,0.0,65,0.00,,---,0.01,VWS V14.00,2013-02-28 06:02:00,
2013-02-27 23:07:00,18.4,9.0,30.46,ESE,121,0.0,0.0,66,0.00,,---,0.01,VWS V14.00,2013-02-28 06:07:00,
2013-02-27 23:12:00,18.2,8.8,30.45,ESE,121,0.0,0.0,66,0.00,,---,0.01,VWS V14.00,2013-02-28 06:12:00,
2013-02-27 23:17:00,18.0,8.6,30.45,ESE,121,0.0,1.0,66,0.00,,---,0.01,VWS V14.00,2013-02-28 06:17:00,
2013-02-27 23:22:00,17.9,8.5,30.46,ESE,121,0.0,0.0,66,0.00,,---,0.01,VWS V14.00,2013-02-28 06:22:00,
2013-02-27 23:27:00,17.7,8.6,30.46,ESE,121,0.0,0.0,67,0.00,,---,0.01,VWS V14.00,2013-02-28 06:27:00,
2013-02-27 23:32:00,17.6,8.5,30.46,ESE,121,0.0,0.0,67,0.00,,---,0.01,VWS V14.00,2013-02-28 06:32:00,
2013-02-27 23:37:00,17.4,8.3,30.46,ESE,121,0.0,0.0,67,0.00,,---,0.01,VWS V14.00,2013-02-28 06:37:00,
2013-02-27 23:42:00,17.3,8.2,30.47,ESE,121,0.0,2.0,67,0.00,,---,0.01,VWS V14.00,2013-02-28 06:42:00,
2013-02-27 23:47:00,17.3,8.6,30.47,ESE,121,0.0,1.0,68,0.00,,---,0.01,VWS V14.00,2013-02-28 06:47:00,
2013-02-27 23:52:00,17.3,8.6,30.47,ESE,121,0.0,0.0,68,0.00,,---,0.01,VWS V14.00,2013-02-28 06:52:00,
2013-02-27 23:57:00,17.1,8.4,30.47,ESE,121,0.0,0.0,68,0.00,,---,0.01,VWS V14.00,2013-02-28 06:57:00,